ジョンソン彗星

C/2015 V2 ( Johnson )

English version
Home page
Updated on July 8, 2017

---------------------------------------------------------------------

・ プロフィール

発見日 2015年11月3日
発見光度 17.1等
発見者 J. A. Johnson (Catalina Sky Survey)

・ 写真集

・ 軌道要素

Epoch 2017 June 16.0 TT = JDT 2457920.5
T 2017 June 12.34223 TT                                 MPCW
q   1.6369814            (2000.0)            P               Q
z  -0.0010786      Peri.  164.89737     -0.49022540     +0.49433700
 +/-0.0000001      Node    69.84906     -0.85775124     -0.12740942
e   1.0017657      Incl.   49.87647     -0.15473158     -0.85988242
From 5354 observations 2015 Jan. 11-2017 July 5, mean residual 0".5.

・ 星図

・ 光度変化

        m1 = 6.0 + 5 logΔ + 9.0 log r

---------------------------------------------------------------------

軌道要素はM.P.E.C. 2017-N58に掲載されたものです。
星図はステラナビゲータ Ver.8 (アストロアーツ) で作成したものです。
光度グラフはComet for Windowsで作成したものです。

---------------------------------------------------------------------

Copyright(C) Seiichi Yoshida (comet@aerith.net). All rights reserved.